Starlink 11545

operational
NORAD ID: 63016 Int'l Des: 2025-032 Owner: SPXS Country: US Constellation: starlink
LEOCIRCULAR

Starlink 11545について

説明を読み込み中...

リアルタイム位置

3D地球を読み込み中...

次回通過

高度履歴

Altitude vs Time

uPlot chart will show altitude changes over time

軌道要素

1 63016U 25032M 25305.55884495 .00281153 00000-0 21083-2 0 9997
2 63016 42.9998 247.5342 0001403 27.3175 332.7766 15.70986602 42070
Epoch: Nov 1, 2025 • Age: 29 hours

現在のステータス

高度 352.4 km
速度 7.70 km/s
衛星直下点 15.23°N, 62.58°W
打ち上げ日 Feb 15, 2025
運用期間 0.7 years
タイプ internet

技術仕様

分類 Payload
質量 960.00 kg
乾燥質量 910.00 kg
総質量 960.00 kg
長さ 0.30 m
直径 4.10 m
スパン 29.00 m
形状 Box + pan
製造者 SPXS
バスタイプ Starlink V2MD
フェーズステータス In Orbit
所有者/国 SPXS/US

大規模コンステレーション

Loading constellations...